Regional Weather Roundup
Issued by NWS Cleveland, OH

Home | Current Version | Previous Version | Text Only | Print | Product List | Glossary Off
Versions: 1 2 3 4 5 6 7 8 9 10 11 12 13 14 15 16 17 18 19 20 21 22 23 24 25 26 27 28 29 30 31 32 33 34 35 36 37 38 39 40 41 42 43 44 45 46 47 48 49 50

000
ASUS41 KCLE 240910
RWRCLE
OHIO REGIONAL WEATHER ROUNDUP
NATIONAL WEATHER SERVICE CLEVELAND, OH
500 AM EDT SUN MAY 24 2015

NOTE: "FAIR" INDICATES FEW OR NO CLOUDS BELOW 12,000 FEET WITH NO
SIGNIFICANT WEATHER AND/OR OBSTRUCTIONS TO VISIBILITY.

OHZ001>008-015>018-024>027-034-035-043-044-241000-
   NORTHWEST OHIO

CITY           SKY/WX    TMP DP  RH WIND       PRES   REMARKS
DEFIANCE       CLEAR     53  49  86 CALM      30.26S
FINDLAY        CLEAR     57  45  64 SE5       30.27R
TOLEDO EXPRESS CLEAR     50  45  83 CALM      30.26R
TOLEDO EXEC    CLEAR     55  43  63 SW5       30.27R
LIMA           PTCLDY    57  45  64 S8        30.28R
$$

OHZ009>014-019>023-028>033-038-089-241000-
   NORTHEAST OHIO

CITY           SKY/WX    TMP DP  RH WIND       PRES   REMARKS
CLE-HOPKINS    CLEAR     52  42  69 CALM      30.30S
CLE-LAKEFRONT  CLEAR     59  39  47 SE12      30.26F
CUY CO. ARPT   NOT AVBL
LORAIN-ELYRIA  CLEAR     52  41  66 S5        30.29S
ASHTABULA      CLEAR     47  41  80 S5        30.31S
AKRON-CANTON   CLEAR     55  40  56 S5        30.31S
WOOSTER        CLEAR     48  41  76 CALM      30.31S
MANSFIELD      CLEAR     54  41  61 S7        30.30S
YOUNGSTOWN     CLEAR     54  38  54 S7        30.31S
$$

OHZ042-051>053-060>062-070>072-077>081-241000-
  SOUTHWEST OHIO

CITY           SKY/WX    TMP DP  RH WIND       PRES   REMARKS
CINC-COVINGTON CLEAR     61  48  62 S8        30.27R
CINC-LUNKEN    CLEAR     51  50  96 CALM      30.29R
HAMILTON       CLEAR     52  49  89 CALM      30.28S
DAYTON         CLEAR     58  46  64 SE7       30.29R
WRIGHT-PAT AFB CLEAR     51  47  87 NW2       30.28R
DAYTON GENERAL CLEAR     62  44  51 SE7       30.27S
WILMINGTON     CLEAR     60  42  51 SE6       30.29R
$$

OHZ036-037-039>041-045>050-054>059-063>069-073>076-082>088-241000-
  CENTRAL AND SOUTHEAST OHIO

CITY           SKY/WX    TMP DP  RH WIND       PRES   REMARKS
COLUMBUS       PTCLDY    52  47  83 CALM      30.30R
OSU AIRPORT    PTCLDY    56  44  64 CALM      30.30R
BOLTON FIELD   NOT AVBL
RICKENBACK AFB CLEAR     52  46  79 CALM      30.30R
NEWARK         CLEAR     45  43  93 NW3       30.31R
MARION         PTCLDY    53  43  68 S7        30.30R
LANCASTER      CLEAR     50  47  89 CALM      30.31S
ZANESVILLE     CLEAR     48  43  82 CALM      30.31S
NEW PHILLY     CLEAR     49  44  83 CALM      30.33R
$$


USA.gov is the U.S. government's official web portal to all federal, state and local government web resources and services.